Waarnemingen

Advertentie
Mijn weer
Tholey, Duitsland (10706): temperatuur & dauwpunt: 18.02.2018 01:00:00 - 24.02.2018 01:00:00 (CET)Tholey, Duitsland (10706): temperatuur 5cm & temperatuur -5cm: 18.02.2018 01:00:00 - 24.02.2018 01:00:00 (CET)Tholey, Duitsland (10706): temperatuur -20cm & temperatuur -100cm: 18.02.2018 01:00:00 - 24.02.2018 01:00:00 (CET)Tholey, Duitsland (10706): windsnelheid & windstoten: 18.02.2018 01:00:00 - 24.02.2018 01:00:00 (CET)Tholey, Duitsland (10706): windrichting: 18.02.2018 01:00:00 - 24.02.2018 01:00:00 (CET)Tholey, Duitsland (10706): luchtdruk: 18.02.2018 01:00:00 - 24.02.2018 01:00:00 (CET)Tholey, Duitsland (10706): zicht: 18.02.2018 01:00:00 - 24.02.2018 01:00:00 (CET)Tholey, Duitsland (10706): Zonneschijnduur: 18.02.2018 01:00:00 - 24.02.2018 01:00:00 (CET)Tholey, Duitsland (10706): neerslag: 18.02.2018 01:00:00 - 24.02.2018 01:00:00 (CET)
Datum & Tijd tt [°C] td [°C] tt 5cm [°C] tt -5cm [°C] tt -20cm [°C] tt -100cm [°C] ff [km/u] ff [kn] fx [km/u] fx [kn] dd ppp [hPa] vv [km] sd [min] rr [mm]
24.02.2018 01:00:00 -3,9 -10,5 -4,8 -1,8 0,5 4,2 30 16 51 28 O 1018,4 12 0 0,0
24.02.2018 00:00:00 -3,5 -10,7 -4,4 -1,5 0,5 4,2 30 16 48 26 ONO 1018,6 13 0 0,0
23.02.2018 23:00:00 -2,8 -10,8 -3,7 -1,2 0,5 4,2 31 17 48 26 O 1018,3 15 0 0,0
23.02.2018 22:00:00 -2,8 -10,6 -3,9 -0,9 0,5 4,2 26 14 44 24 ONO 1018,2 17 0 0,0
23.02.2018 21:00:00 -2,2 -10,5 -3,3 -0,6 0,5 4,2 23 12 40 22 ONO 1018,3 19 0 0,0
23.02.2018 20:00:00 -1,9 -10,3 -3,2 -0,3 0,5 4,2 22 12 45 25 ONO 1018,3 17 0 0,0
23.02.2018 19:00:00 -1,3 -10,6 -2,3 -0,2 0,5 4,2 28 15 45 24 ONO 1017,7 18 0 0,0
23.02.2018 18:00:00 -1,0 -10,5 -1,9 -0,2 0,5 4,2 26 14 55 30 ONO 1017,7 19 56 0,0
23.02.2018 17:00:00 -0,4 -10,4 -0,3 -0,2 0,5 4,2 26 14 49 27 ONO 1017,4 15 60 0,0
23.02.2018 16:00:00 0,1 -9,6 1,3 -0,3 0,5 4,2 27 15 50 27 ONO 1017,1 16 60 0,0
23.02.2018 15:00:00 -0,3 -9,2 1,6 -0,3 0,5 4,2 34 18 53 29 ONO 1017,1 16 60 0,0
23.02.2018 14:00:00 -0,2 -8,9 2,1 -0,4 0,5 4,2 29 16 48 26 O 1017,6 13 60 0,0
23.02.2018 13:00:00 -0,4 -8,8 2,3 -0,6 0,5 4,2 25 14 55 30 O 1018,0 12 60 0,0
23.02.2018 12:00:00 -1,7 -9,4 0,5 -0,7 0,5 4,2 34 18 55 30 ONO 1018,5 10 60 0,0
23.02.2018 11:00:00 -2,2 -9,5 -0,1 -1,0 0,5 4,2 29 15 54 29 O 1018,7 13 60 0,0
23.02.2018 10:00:00 -3,4 -10,4 -2,2 -1,5 0,6 4,2 42 23 61 33 O 1018,5 22 60 0,0
23.02.2018 09:00:00 -4,0 -10,6 -3,7 -2,2 0,6 4,2 25 14 48 26 ONO 1018,7 19 60 0,0
23.02.2018 08:00:00 -4,7 -10,9 -5,4 -2,4 0,6 4,2 30 16 50 27 ONO 1018,5 24 4 0,0
23.02.2018 07:00:00 -4,8 -10,7 -5,7 -2,2 0,6 4,2 26 14 47 26 ONO 1018,5 27 0 0,0
23.02.2018 06:00:00 -4,4 -10,3 -5,3 -2,0 0,7 4,2 27 15 44 24 ONO 1018,4 28 0 0,0
23.02.2018 05:00:00 -4,1 -10,2 -5,1 -1,8 0,7 4,2 25 13 43 23 O 1018,1 23 0 0,0
23.02.2018 04:00:00 -3,7 -10,1 -4,6 -1,6 0,7 4,2 26 14 44 24 ONO 1018,4 26 0 0,0
23.02.2018 03:00:00 -3,5 -10,0 -4,4 -1,4 0,7 4,2 29 16 41 22 ONO 1018,8 28 0 0,0
23.02.2018 02:00:00 -3,3 -9,8 -4,3 -1,2 0,7 4,2 25 13 46 25 ONO 1019,0 27 0 0,0
23.02.2018 01:00:00 -3,1 -9,6 -4,2 -0,9 0,7 4,2 27 14 49 26 ONO 1019,3 26 0 0,0
23.02.2018 00:00:00 -2,9 -9,7 -3,9 -0,7 0,8 4,2 24 13 46 25 ONO 1019,5 30 0 0,0
22.02.2018 23:00:00 -2,5 -9,6 -3,5 -0,4 0,8 4,2 24 13 44 24 ONO 1019,4 34 0 0,0
22.02.2018 22:00:00 -2,3 -9,3 -3,4 -0,2 0,8 4,2 21 12 40 22 ONO 1019,5 32 0 0,0
22.02.2018 21:00:00 -1,8 -9,1 -2,7 -0,1 0,8 4,2 28 15 49 26 ONO 1019,2 32 0 0,0
22.02.2018 20:00:00 -1,2 -9,0 -2,1 0,0 0,8 4,2 29 15 53 29 ONO 1019,1 34 0 0,0
22.02.2018 19:00:00 -0,6 -9,0 -1,2 0,0 0,8 4,2 26 14 49 27 ONO 1018,7 43 0 0,0
22.02.2018 18:00:00 -0,2 -9,1 -0,9 -0,1 0,8 4,2 36 19 53 29 ONO 1018,2 41 53 0,0
22.02.2018 17:00:00 0,3 -9,1 0,3 -0,1 0,8 4,2 29 15 53 29 ONO 1018,0 26 58 0,0
22.02.2018 16:00:00 0,2 -9,0 -0,2 -0,1 0,8 4,2 28 15 56 30 ONO 1018,1 38 47 0,0
22.02.2018 15:00:00 0,7 -8,5 2,1 -0,1 0,8 4,2 34 18 56 30 ONO 1018,1 15 60 0,0
22.02.2018 14:00:00 0,8 -9,0 2,3 -0,2 0,8 4,2 37 20 63 34 ONO 1018,4 15 60 0,0
22.02.2018 13:00:00 0,9 -8,6 2,8 -0,2 0,9 4,2 32 17 68 37 O 1018,6 25 60 0,0
22.02.2018 12:00:00 0,3 -9,3 1,8 -0,3 0,9 4,2 37 20 66 36 O 1019,1 14 60 0,0
22.02.2018 11:00:00 -0,1 -9,3 1,2 -0,3 0,9 4,2 35 19 56 30 ONO 1019,2 20 60 0,0
22.02.2018 10:00:00 -1,1 -9,0 -0,1 -0,5 1,0 4,2 37 20 59 32 ONO 1019,4 16 60 0,0
22.02.2018 09:00:00 -2,0 -8,4 -2,1 -0,7 1,0 4,2 36 20 62 33 ONO 1019,2 16 60 0,0
22.02.2018 08:00:00 -3,1 -8,0 -3,8 -0,6 1,1 4,2 31 17 49 27 ONO 1019,6 18 5 0,0
22.02.2018 07:00:00 -3,2 -7,6 -4,1 -0,4 1,1 4,2 29 16 48 26 ONO 1019,6 14 0 0,0
22.02.2018 06:00:00 -3,1 -7,6 -4,0 -0,3 1,2 4,2 30 16 48 26 ONO 1019,8 13 0 0,0
22.02.2018 05:00:00 -3,1 -7,7 -3,9 -0,1 1,2 4,2 29 16 44 24 ONO 1019,6 11 0 0,0
22.02.2018 04:00:00 -3,1 -7,5 -4,0 0,0 1,3 4,2 27 14 43 23 ONO 1019,9 9 0 0,0
22.02.2018 03:00:00 -2,9 -7,3 -3,7 0,1 1,3 4,2 29 16 49 27 ONO 1020,4 7 0 0,0
22.02.2018 02:00:00 -2,7 -7,1 -3,6 0,1 1,4 4,2 27 14 41 22 ONO 1020,7 7 0 0,0
22.02.2018 01:00:00 -2,3 -7,1 -3,2 0,2 1,5 4,2 24 13 45 24 ONO 1021,2 7 0 0,0
22.02.2018 00:00:00 -2,0 -6,7 -3,0 0,3 1,5 4,2 21 12 42 23 ONO 1021,3 7 0 0,0
21.02.2018 23:00:00 -1,1 -6,6 -2,1 0,3 1,6 4,2 22 12 48 26 ONO 1021,3 12 0 0,0
21.02.2018 22:00:00 -0,2 -6,6 -1,3 0,4 1,7 4,2 26 14 45 24 ONO 1021,0 12 0 0,0
21.02.2018 21:00:00 0,3 -6,9 -0,8 0,6 1,8 4,2 23 13 36 20 ONO 1021,0 14 0 0,0
21.02.2018 20:00:00 1,0 -7,1 -0,3 0,7 1,8 4,2 24 13 35 19 ONO 1020,9 16 0 0,0
21.02.2018 19:00:00 1,6 -7,1 0,4 1,0 1,9 4,2 21 12 33 18 ONO 1020,8 15 0 0,0
21.02.2018 18:00:00 2,1 -7,5 0,5 1,5 1,7 4,2 18 10 44 24 ONO 1020,4 17 56 0,0
21.02.2018 17:00:00 3,2 -7,1 2,9 2,8 1,5 4,2 24 13 35 19 NO 1020,0 14 60 0,0
21.02.2018 16:00:00 4,0 -5,9 5,0 3,2 1,2 4,2 20 11 33 18 NO 1019,9 11 60 0,0
21.02.2018 15:00:00 4,1 -8,2 5,7 2,3 1,1 4,2 24 13 38 20 ONO 1020,2 15 60 0,0
21.02.2018 14:00:00 3,8 -5,8 6,0 0,1 1,0 4,2 17 9 27 15 NO 1020,8 11 60 0,0
21.02.2018 13:00:00 2,9 -5,5 5,5 0,1 1,1 4,2 16 8 35 19 ONO 1021,4 - 60 0,0
21.02.2018 12:00:00 1,4 -5,3 3,4 0,1 1,1 4,2 23 12 37 20 NO 1021,8 8 60 0,0
21.02.2018 11:00:00 0,5 -4,9 2,1 0,1 1,1 4,2 21 11 37 20 NO 1022,4 7 60 0,0
21.02.2018 10:00:00 -0,6 -5,0 0,5 0,1 1,1 4,2 24 13 35 19 NO 1022,5 4,9 60 0,0
21.02.2018 09:00:00 -1,6 -5,3 -1,7 0,1 1,2 4,2 21 12 36 19 ONO 1022,2 5 28 0,0
21.02.2018 08:00:00 -2,3 -5,8 -3,2 0,1 1,2 4,2 17 9 23 13 NO 1022,4 6 0 0,0
21.02.2018 07:00:00 -2,4 -6,0 -3,9 0,2 1,2 4,2 11 6 26 14 ONO 1021,9 6 0 0,0
21.02.2018 06:00:00 -1,9 -6,3 -3,0 0,2 1,3 4,2 15 8 29 15 ONO 1021,5 8 0 0,0
21.02.2018 05:00:00 -1,5 -6,2 -2,1 0,2 1,3 4,2 16 9 28 15 ONO 1021,8 8 0 0,0
21.02.2018 04:00:00 -1,2 -5,5 -1,4 0,2 1,4 4,2 14 8 31 17 ONO 1021,6 5 0 0,0
21.02.2018 03:00:00 -1,0 -5,8 -1,2 0,3 1,4 4,2 18 10 31 17 ONO 1021,3 6 0 0,0
21.02.2018 02:00:00 -0,9 -5,6 -1,2 0,3 1,5 4,2 13 7 23 12 ONO 1021,1 7 0 0,0
21.02.2018 01:00:00 -0,9 -5,5 -1,3 0,4 1,6 4,2 16 9 24 13 ONO 1020,6 7 0 0,0
21.02.2018 00:00:00 -0,7 -5,7 -1,3 0,4 1,7 4,2 14 7 23 12 NO 1020,1 8 0 0,0
20.02.2018 23:00:00 -0,5 -5,6 -1,5 0,5 1,8 4,2 16 9 24 13 ONO 1019,9 8 0 0,0
20.02.2018 22:00:00 0,1 -4,8 -0,2 0,6 1,9 4,2 19 10 28 15 ONO 1019,6 8 0 0,0
20.02.2018 21:00:00 0,1 -3,9 -0,8 0,7 2,0 4,2 13 7 19 10 ONO 1019,2 8 0 0,0
20.02.2018 20:00:00 -0,2 -4,5 -1,8 0,9 2,1 4,2 12 6 24 13 NO 1018,9 9 0 0,0
20.02.2018 19:00:00 -0,8 -4,8 -2,4 1,2 2,2 4,2 9 5 21 11 O 1018,4 11 0 0,0
20.02.2018 18:00:00 1,3 -4,6 -0,4 1,8 2,2 4,2 11 6 20 11 N 1017,7 11 0 0,0
20.02.2018 17:00:00 1,5 -5,1 -0,3 3,2 2,0 4,2 9 5 18 10 NO 1017,3 14 0 0,0
20.02.2018 16:00:00 2,4 -5,2 2,7 4,5 1,6 4,2 13 7 21 12 ONO 1016,5 16 2 0,0
20.02.2018 15:00:00 2,4 -5,6 4,3 4,8 1,3 4,2 9 5 16 9 ONO 1016,7 18 22 0,0
20.02.2018 14:00:00 2,2 -5,4 5,1 4,2 1,0 4,2 10 6 16 8 ONO 1017,2 15 57 0,0
20.02.2018 13:00:00 1,6 -5,1 5,4 1,6 0,9 4,2 12 7 23 12 O 1017,5 16 60 0,0
20.02.2018 12:00:00 1,1 -5,6 4,7 0,2 0,9 4,2 11 6 24 13 O 1017,9 20 56 0,0
20.02.2018 11:00:00 0,7 -5,0 3,4 0,2 0,9 4,2 11 6 21 12 O 1017,7 13 59 0,0
20.02.2018 10:00:00 -0,4 -4,8 1,1 0,2 0,9 4,2 10 6 16 8 ONO 1018,1 10 35 0,0
20.02.2018 09:00:00 -1,8 -4,8 -1,7 0,2 0,9 4,2 11 6 18 10 ONO 1018,2 7 1 0,0
20.02.2018 08:00:00 -2,3 -5,0 -2,5 0,2 1,0 4,2 10 5 16 9 NO 1018,2 7 0 0,0
20.02.2018 07:00:00 -2,3 -4,9 -3,2 0,2 1,0 4,2 11 6 15 8 NO 1017,8 7 0 0,0
20.02.2018 06:00:00 -1,8 -4,7 -2,0 0,2 1,0 4,2 10 5 16 9 NO 1017,6 8 0 0,0
20.02.2018 05:00:00 -2,5 -4,5 -3,6 0,2 1,0 4,2 8 4 11 6 ONO 1017,4 4,9 0 0,0
20.02.2018 04:00:00 -2,1 -4,2 -3,1 0,2 1,0 4,2 5 3 11 6 ONO 1017,5 6 0 0,0
20.02.2018 03:00:00 -1,8 -4,0 -3,4 0,3 1,0 4,3 7 4 9 5 NO 1017,5 6 0 0,0
20.02.2018 02:00:00 -1,3 -4,0 -2,9 0,3 1,0 4,3 8 5 10 5 NO 1017,6 7 0 0,0
20.02.2018 01:00:00 -1,1 -3,8 -2,0 0,3 1,0 4,3 6 3 9 5 NNO 1017,8 7 0 0,0
20.02.2018 00:00:00 -0,6 -3,6 -1,2 0,3 1,0 4,3 0 0 6 3 N 1017,7 7 0 0,0
19.02.2018 23:00:00 -0,8 -3,3 -1,0 0,3 1,1 4,3 4 2 5 3 O 1018,0 6 0 0,0
19.02.2018 22:00:00 -0,6 -3,1 -1,1 0,3 1,1 4,3 0 0 6 3 N 1018,3 6 0 0,0
19.02.2018 21:00:00 -0,4 -3,8 -1,0 0,3 1,1 4,3 5 3 6 3 WNW 1018,6 7 0 0,0
19.02.2018 20:00:00 -0,3 -3,8 -1,0 0,4 1,1 4,3 4 2 7 4 W 1018,6 8 0 0,0
19.02.2018 19:00:00 -0,1 -4,0 -0,9 0,4 1,1 4,3 5 3 6 3 W 1018,7 10 0 0,0
19.02.2018 18:00:00 0,2 -4,0 -0,2 0,6 1,0 4,3 4 2 6 4 ZZW 1018,8 12 0 0,0
19.02.2018 17:00:00 0,6 -3,8 0,6 0,7 1,0 4,3 4 2 8 5 Z 1018,9 14 0 0,0
19.02.2018 16:00:00 0,5 -4,3 0,9 0,4 1,0 4,3 4 2 7 4 Z 1019,2 14 0 0,0
19.02.2018 15:00:00 0,5 -4,4 1,3 0,2 1,0 4,3 2 1 8 5 ONO 1019,4 15 0 0,0
19.02.2018 14:00:00 0,6 -4,0 1,7 0,2 1,0 4,3 3 1 8 4 OZO 1019,9 15 0 0,0
19.02.2018 13:00:00 0,0 -4,3 1,0 0,2 1,0 4,3 3 2 8 4 ZO 1020,7 13 0 0,0
19.02.2018 12:00:00 -0,1 -4,4 0,3 0,2 1,0 4,3 3 2 9 5 O 1021,2 14 0 0,0
19.02.2018 11:00:00 -0,5 -4,2 0,1 0,2 1,0 4,3 7 4 11 6 ZO 1021,3 13 0 0,0
19.02.2018 10:00:00 -0,8 -4,6 -0,1 0,2 1,0 4,3 5 3 13 7 OZO 1021,7 14 0 0,0
19.02.2018 09:00:00 -0,9 -4,0 -0,7 0,2 1,0 4,3 7 4 10 5 O 1022,1 12 0 0,0
19.02.2018 08:00:00 -1,1 -4,2 -1,1 0,2 1,0 4,3 4 2 9 5 ONO 1022,4 12 0 0,0
19.02.2018 07:00:00 -1,1 -4,3 -1,1 0,2 1,0 4,3 4 2 13 7 ZO 1022,4 13 0 0,0
19.02.2018 06:00:00 -1,3 -3,8 -1,3 0,2 1,1 4,3 6 4 21 11 OZO 1022,7 12 0 0,0
19.02.2018 05:00:00 -1,4 -4,4 -1,3 0,2 1,1 4,3 13 7 21 11 OZO 1022,8 12 0 0,0
19.02.2018 04:00:00 -1,3 -4,2 -1,3 0,3 1,1 4,3 9 5 16 9 OZO 1023,4 12 0 0,0
19.02.2018 03:00:00 -1,3 -4,0 -1,3 0,3 1,1 4,3 11 6 20 11 OZO 1023,8 12 0 0,0
19.02.2018 02:00:00 -1,5 -4,1 -1,4 0,3 1,2 4,3 9 5 20 11 O 1024,5 11 0 0,0
19.02.2018 01:00:00 -1,8 -4,1 -1,6 0,3 1,2 4,3 10 5 23 13 O 1025,1 9 0 0,0
19.02.2018 00:00:00 -1,5 -4,0 -1,4 0,3 1,3 4,3 15 8 27 14 O 1025,4 9 0 0,0
18.02.2018 23:00:00 -1,2 -3,7 -1,1 0,4 1,3 4,3 10 6 22 12 O 1025,7 8 0 0,0
18.02.2018 22:00:00 -1,2 -4,0 -1,2 0,4 1,4 4,3 18 10 26 14 O 1026,2 9 0 0,0
18.02.2018 21:00:00 -1,4 -3,4 -1,8 0,5 1,5 4,3 10 5 15 8 OZO 1026,3 6 0 0,0
18.02.2018 20:00:00 -0,9 -3,6 -2,5 0,7 1,5 4,3 10 5 18 10 O 1026,3 9 0 0,0
18.02.2018 19:00:00 -0,2 -3,6 -1,8 0,9 1,5 4,3 13 7 16 9 O 1026,4 13 0 0,0
18.02.2018 18:00:00 0,5 -3,0 -1,5 1,4 1,3 4,3 9 5 21 11 O 1026,5 10 36 0,0
18.02.2018 17:00:00 1,5 -3,0 0,8 2,2 1,1 4,3 15 8 24 13 OZO 1026,4 14 57 0,0
18.02.2018 16:00:00 2,0 -2,6 3,4 1,5 0,9 4,3 16 8 24 13 ONO 1026,5 11 58 0,0
18.02.2018 15:00:00 2,3 -2,4 5,2 0,1 0,8 4,3 14 8 21 12 O 1026,6 11 58 0,0
18.02.2018 14:00:00 2,9 -2,3 6,2 0,1 0,8 4,3 14 7 19 11 OZO 1026,9 13 58 0,0
18.02.2018 13:00:00 2,4 -2,9 4,8 0,1 0,8 4,3 13 7 19 10 O 1027,3 11 58 0,0
18.02.2018 12:00:00 1,6 -2,1 3,5 0,1 0,8 4,3 12 7 21 12 O 1027,8 7 60 0,0
18.02.2018 11:00:00 0,3 -2,8 1,7 0,1 0,8 4,3 13 7 18 10 O 1028,0 7 60 0,0
18.02.2018 10:00:00 -0,6 -3,2 0,0 0,1 0,8 4,3 9 5 13 7 O 1028,0 7 60 0,0
18.02.2018 09:00:00 -1,7 -4,0 -2,4 0,1 0,9 4,3 9 5 14 8 ONO 1028,4 7 51 0,0
18.02.2018 08:00:00 -2,5 -4,5 -4,0 0,1 0,9 4,3 11 6 13 7 NO 1028,6 7 0 0,0
18.02.2018 07:00:00 -2,3 -4,4 -4,1 0,1 0,9 4,3 11 6 13 7 NO 1028,4 9 0 0,0
18.02.2018 06:00:00 -2,2 -4,3 -4,1 0,1 0,9 4,3 11 6 14 8 NO 1028,2 9 0 0,0
18.02.2018 05:00:00 -2,6 -4,2 -5,7 0,1 0,9 4,3 4 2 10 5 ONO 1028,0 8 0 0,0
18.02.2018 04:00:00 -2,4 -4,1 -5,8 0,2 0,9 4,3 5 3 10 5 NO 1028,1 10 0 0,0
18.02.2018 03:00:00 -1,6 -4,1 -3,9 0,2 0,9 4,3 8 4 14 8 NO 1027,7 11 0 0,0
18.02.2018 02:00:00 -1,4 -4,1 -3,3 0,2 0,9 4,3 12 7 16 8 NO 1027,5 13 0 0,0
18.02.2018 01:00:00 -1,8 -3,8 -4,3 0,2 0,9 4,3 5 3 15 8 ONO 1027,2 10 0 0,0

tt = temperatuur
td = dauwpunt
tt 5cm = temperatuur 5cm
tt -5cm = temperatuur -5cm
tt -20cm = temperatuur -20cm
tt -100cm = temperatuur -100cm
ff = windsnelheid
fx = windstoten
dd = windrichting
ppp = luchtdruk
vv = zicht
sd = Zonneschijnduur
rr = neerslag

Weerstations in de omgeving